DOVE 3

导读

DOVE 3是一颗由美国发射的小型卫星,于2013年11月21日08:00发射入轨,隶属于Flock卫星星座,属于行星实验室(Planet Labs)推进地球观测能力建设的一部分。该卫星采用CubeSat立方星设计,具备低成本快速部署优势,运行于近地轨道,负责获取全球高分辨率遥感影像,服务于环境监测、农业评估与灾害响应等民用领域,推动了商用微小卫星遥感技术的创新应用。

Basic Information
目录编号:
39429
目录名称:
DOVE 3
国际标识:
2013-066P
轨道中心:
EARTH
卫星名称:
DOVE 3
卫星全名:
--
卫星状态:
在轨 (已飞行4671 天)
发射日期:
2013-11-21 UTC
国别 :
美国 (US)
星等 :
--
Orbit Information
数据来源 国际轨道数据
星历时间: 2026-09-04T04:16:22+0800
1天前
查看轨道信息
半长轴: 7018.329km
偏心率: 0.0114133
轨道倾角: 97.653°
近地点辐角 128.732°
升交点赤经 102.657°
平近点角 232.416°
近地点: 560.089km
远地点: 720.295km
周期: 97.524分钟
每日圈数: 14.765638
Detailed Information
使用方式:
暂无
2D Orbit Map
3D Orbit Map
Orbit Altitude Analysis Chart
Orbit Inclination Analysis Chart
Orbit Comprehensive Analysis Chart
View Comprehensive Chart
Conjunction Data List
Event ID Objects TCA Miss Dist (km) Collision Risk Probability Collision Risk Index (CRI) Action
CDM_260905-045903-942906-008323
DOVE 3 (39429)
2026-09-05T
04:59:17+0000
1.412 km
极远距离
8.231361E-6 低风险 0.53
CDM_260906-090803-942906-709821
DOVE 3 (39429)
2026-09-06T
09:08:17+0000
1.561 km
极远距离
5.966362E-6 低风险 0.51
CDM_260904-153003-942905-463123
DOVE 3 (39429)
2026-09-04T
15:30:47+0000
2.377 km
极远距离
1.892635E-6 低风险 0.41
CDM_260905-101103-942906-675222
DOVE 3 (39429)
2026-09-05T
10:11:32+0000
2.468 km
极远距离
1.774315E-6 低风险 0.4
CDM_260905-130603-942906-892421
DOVE 3 (39429)
2026-09-05T
13:06:48+0000
2.713 km
极远距离
1.066981E-6 低风险 0.36